Weather History for KP59 - March, 2013

Change the Weather History Date:

Saturday, March 16, 2013

  Actual Average Record
Temperature  
Mean Temperature 18 °F -  
Max Temperature 21 °F 30 °F 57 °F (2012)
Min Temperature 15 °F 17 °F -7 °F (2014)
Degree Days  
Heating Degree Days 48    
Moisture  
Dew Point 10 °F    
Average Humidity 74    
Maximum Humidity 88    
Minimum Humidity 60    
Precipitation  
Precipitation 0.06 in - - ()
Sea Level Pressure  
Sea Level Pressure 30.05 in    
Wind  
Wind Speed 11 mph (NE)    
Max Wind Speed 36 mph    
Max Gust Speed 44 mph    
Averages and records for this station are not official NWS values.
T = Trace of Precipitation, MM = Missing Value Source: NWS Daily Summary

Daily Weather History Graph

Daily Weather History Graph

Search for Another Location

Airport or City:

Trip Planner

Search our weather history database for the weather conditions in past years. The results will help you decide how hot, cold, wet, or windy it might be!

Date:

Astronomy

Mar. 16, 2013 Rise Set
Actual Time 8:01 AM EDT 7:58 PM EDT
Civil Twilight 7:31 AM EDT 8:29 PM EDT
Nautical Twilight 6:55 AM EDT 9:05 PM EDT
Astronomical Twilight 6:18 AM EDT 9:42 PM EDT
Moon 10:10 AM EDT (3/16) 12:31 AM EDT (3/16)
Length of Visible Light 12h 58m
Length of Day
11h 56m
Waxing Crescent, 23% of the Moon is Illuminated
Mar 16
Waxing Crescent
Mar 19
First Quarter
Mar 27
Full
Apr 3
Last Quarter
Apr 10
New

Hourly Weather History & Observations

Time (EDT) Temp. Windchill Dew Point Humidity Pressure Visibility Wind Dir Wind Speed Gust Speed Precip Events Conditions
12:51 AM 18.0 °F 6.9 °F 6.1 °F 60% 30.06 in - ENE 9.2 mph - N/A   Unknown
1:51 AM 17.1 °F 5.0 °F 8.1 °F 68% 30.07 in - East 10.4 mph - N/A   Unknown
2:51 AM 17.1 °F 7.6 °F 8.1 °F 68% 30.07 in - East 6.9 mph - N/A   Unknown
3:51 AM 17.1 °F 6.6 °F 10.0 °F 74% 30.06 in - East 8.1 mph - N/A   Unknown
4:51 AM 17.1 °F 3.6 °F 12.0 °F 81% 30.05 in - East 12.7 mph 20.7 mph 0.01 in   Unknown
5:51 AM 16.0 °F 4.4 °F 10.9 °F 81% 30.05 in - East 9.2 mph 18.4 mph 0.01 in   Unknown
6:51 AM 17.1 °F 5.8 °F 10.9 °F 77% 30.06 in - East 9.2 mph 18.4 mph N/A   Unknown
7:51 AM 16.0 °F 4.4 °F 10.9 °F 81% 30.07 in - East 9.2 mph 18.4 mph N/A   Unknown
8:51 AM 16.0 °F 6.3 °F 10.0 °F 77% 30.08 in - East 6.9 mph - N/A   Unknown
9:51 AM 16.0 °F 10.4 °F 9.0 °F 74% 30.08 in - Variable 3.5 mph - N/A   Unknown
10:51 AM 17.1 °F - 9.0 °F 71% 30.08 in - Calm Calm - N/A   Unknown
11:51 AM 18.0 °F - 10.0 °F 71% 30.07 in - Calm Calm - N/A   Unknown
12:51 PM 17.1 °F 11.7 °F 12.0 °F 81% 30.06 in - North 3.5 mph - 0.01 in   Unknown
1:51 PM 19.0 °F 6.8 °F 15.1 °F 85% 30.04 in - North 11.5 mph - 0.01 in   Unknown
2:51 PM 19.0 °F 5.6 °F 12.0 °F 74% 30.04 in - NNW 13.8 mph 24.2 mph N/A   Unknown
3:51 PM 18.0 °F 2.6 °F 9.0 °F 68% 30.02 in - NNW 17.3 mph 24.2 mph N/A   Unknown
4:51 PM 18.0 °F 4.8 °F 12.0 °F 78% 30.01 in - NNW 12.7 mph 19.6 mph 0.01 in   Unknown
5:51 PM 19.0 °F 5.6 °F 12.9 °F 77% 30.00 in - NNW 13.8 mph 26.5 mph N/A   Unknown
6:51 PM 19.9 °F 11.1 °F 9.0 °F 62% 29.98 in - Variable 6.9 mph 18.4 mph 0.01 in   Unknown
7:51 PM 18.0 °F 0.6 °F 15.1 °F 88% 29.98 in - NNW 23.0 mph 32.2 mph N/A   Unknown
8:51 PM 19.9 °F 0.7 °F 14.0 °F 78% 30.00 in - North 32.2 mph 41.4 mph N/A   Unknown
9:51 PM 19.0 °F -1.3 °F 8.1 °F 62% 30.04 in - NNE 35.7 mph 43.7 mph N/A   Unknown
10:51 PM 17.1 °F -3.0 °F 8.1 °F 68% 30.11 in - NNE 31.1 mph 43.7 mph N/A   Unknown
11:51 PM 15.1 °F -5.0 °F 7.0 °F 70% 30.16 in - NNE 28.8 mph 40.3 mph N/A   Unknown